Presure
275 267 250 278 292 328 322 280 323 323 320 300 247 245 235 250 216 390 200 199 218 198 225 194 179 173 121 146 167 158 159 159 171 140 135 174 164 134 148 152 179 171 157 147
284 279 286 277 290 304 328 318 318 323 312 319 320 247 248 255 332 331 377 305 201 208 231 189 143 170 120 123 138 170 157 160 175 172 172 136 132 170 171 139 156 151 158 140
278 298 287 278 273 282 291 293 300 319 306 306 308 310 322 249 323 336 368 338 327 186 196 204 207 144 170 171 173 178 177 169 168 160 127 164 151 141 147 150 141 143 145 168
274 275 289 286 276 306 295 281 285 302 312 311 303 299 310 250 317 321 397 329 327 172 184 225 205 191 180 181 188 186 179 114 122 180 163 175 146 138 150 156 176 155 160 171
280 277 263 288 294 291 270 290 273 289 299 260 303 301 310 315 317 319 321 394 325 333 321 185 187 195 203 218 208 186 192 188 183 182 184 165 178 152 180 180 138 182 165 163
272 273 273 307 306 304 299 299 290 276 288 302 292 293 308 189 313 308 315 368 382 323 324 318 223 179 181 181 193 197 191 189 189 184 182 182 178 181 182 152 160 181 140 176
272 274 274 272 273 274 283 283 274 282 271 262 284 283 300 300 310 310 223 308 374 370 317 282 306 247 246 252 223 186 184 207 217 208 180 185 179 180 178 178 179 174 170 177
271 268 263 267 267 268 268 268 270 269 267 271 260 268 293 288 297 311 308 255 304 363 272 245 297 324 285 247 231 217 184 199 218 219 211 211 186 220 184 182 200 195 191 177
266 266 266 267 265 268 325 342 294 273 269 266 260 265 253 282 282 275 309 308 299 305 326 245 295 248 257 293 267 244 257 250 202 229 198 184 175 173 213 213 206 220 212 192
282 272 286 290 315 318 313 316 322 345 367 311 274 264 256 262 260 279 273 280 310 262 301 289 275 233 252 313 324 281 263 244 237 242 241 239 230 198 185 199 195 195 207 211
314 314 312 312 315 315 319 317 309 303 305 324 341 330 274 260 259 254 271 273 272 284 176 300 278 150 350 328 308 316 320 267 266 246 240 237 229 229 233 231 190 217 219 214
317 312 315 311 310 307 304 301 298 296 304 303 300 318 329 315 283 256 258 256 271 272 259 305 303 298 240 237 245 352 313 308 320 266 263 259 242 239 237 231 227 235 237 233
324 324 313 312 309 305 301 302 300 296 300 305 293 302 302 306 311 316 286 258 255 257 271 270 266 295 301 258 228 305 351 339 319 314 316 298 266 265 255 250 253 247 246 246
333 333 315 309 307 301 298 297 296 294 298 303 306 306 310 306 303 302 307 313 304 265 254 257 269 274 270 286 248 265 242 290 353 349 327 341 337 321 278 258 251 262 254 249
332 334 331 313 296 292 292 300 298 293 292 289 299 297 302 304 304 305 313 316 307 310 310 284 259 256 267 278 271 274 302 297 285 281 346 351 332 328 333 319 299 280 254 253
339 326 319 309 303 296 300 302 294 296 297 295 293 294 292 296 293 292 301 343 320 322 317 309 311 294 263 259 264 281 273 267 300 297 283 289 338 348 350 331 328 342 346 331
329 328 327 314 312 305 308 307 307 300 299 295 292 292 293 292 291 289 337 337 470 455 366 322 313 308 307 289 266 260 266 279 272 298 303 295 284 263 292 337 345 349 340 331
333 332 326 324 319 316 316 310 306 301 298 296 291 287 284 282 290 280 317 376 460 452 455 423 324 311 306 305 301 285 268 259 267 275 275 273 307 299 286 277 276 247 301 360
335 328 323 323 320 316 315 315 311 304 297 297 289 289 286 280 288 286 282 333 372 464 451 448 432 320 308 303 302 302 298 282 268 260 264 274 273 266 264 272 296 285 278 280
332 331 330 330 322 319 309 313 317 310 302 297 291 287 287 282 282 282 264 299 319 371 343 515 452 449 339 307 299 299 298 299 293 282 269 261 258 266 272 270 264 259 260 258
330 325 323 323 323 320 314 316 310 313 312 301 294 289 288 284 284 282 277 270 288 287 328 365 368 529 481 446 313 300 294 296 297 300 295 283 270 264 260 261 266 266 270 271
320 317 315 313 313 313 314 317 313 314 307 316 304 293 289 286 281 281 278 273 274 277 275 296 321 349 379 487 512 449 306 299 295 298 301 301 302 284 278 266 262 261 262 263
316 315 318 310 312 308 306 329 339 317 305 296 305 300 289 286 281 281 280 277 269 274 281 281 277 294 336 335 395 469 503 482 306 308 298 299 295 275 302 301 279 273 266 264
309 308 308 316 337 331 319 305 328 325 314 305 300 305 298 292 289 285 285 287 282 274 265 277 285 280 282 323 348 334 399 452 482 492 288 294 293 296 298 299 302 317 286 276
307 304 306 321 323 327 336 331 322 327 317 310 302 303 304 298 296 294 292 290 292 286 289 280 274 278 298 285 326 338 321 360 396 438 452 470 316 291 291 299 300 300 301 317
307 303 315 323 316 313 313 316 315 316 318 319 317 317 315 308 303 300 296 289 284 283 284 283 285 277 350 354 348 353 326 363 323 359 403 434 354 313 378 309 307 300 296 298
Wind_Speed
47 51 57 50 50 50 54 64 60 63 63 72 78 88 98 97 62 70 136 135 135 143 144 149 142 139 86 109 129 110 106 106 120 101 92 114 98 89 100 96 106 90 88 88
45 47 47 51 49 50 52 55 58 61 65 64 65 83 92 89 72 81 76 104 135 134 136 140 106 130 87 87 105 136 110 110 137 130 122 94 92 106 105 95 97 96 95 88
43 43 46 50 53 53 52 55 58 60 64 64 65 66 69 88 71 72 76 90 99 128 130 142 145 109 128 137 145 148 147 132 125 108 91 105 101 102 102 97 97 97 99 101
41 44 44 47 51 49 52 56 57 57 60 65 66 69 67 84 71 72 59 87 94 72 128 134 140 144 144 145 152 156 151 79 87 147 116 141 111 101 106 107 124 99 107 112
40 42 47 45 47 49 55 54 59 59 59 69 63 67 65 65 68 70 74 61 91 94 104 127 131 135 140 143 146 144 154 156 151 148 150 131 137 117 140 137 101 132 115 109
41 42 43 43 45 48 50 54 56 60 60 60 63 66 64 61 68 73 72 59 65 93 99 109 130 128 132 130 138 144 131 128 153 150 144 143 133 138 139 117 122 137 103 126
43 42 44 45 47 49 51 54 58 59 63 67 61 67 62 65 68 71 81 77 55 68 96 108 114 125 127 129 133 139 138 142 143 148 139 148 140 139 132 130 132 117 123 122
45 45 47 48 49 51 54 56 60 62 63 63 68 68 62 66 68 70 73 88 81 57 103 111 106 107 126 127 133 140 138 141 140 141 144 146 126 138 141 141 150 153 150 125
51 49 52 51 53 54 48 47 58 64 66 68 72 69 76 67 70 74 72 75 81 81 71 107 101 114 118 125 130 130 134 133 141 136 142 139 130 126 140 138 141 134 137 141
52 52 52 51 47 46 48 48 47 43 44 63 70 72 75 74 77 74 78 79 77 91 85 94 93 112 114 111 114 130 129 130 131 132 132 134 137 142 136 135 133 133 135 134
43 43 43 45 44 43 42 44 48 52 54 51 52 61 73 77 79 82 78 81 84 84 79 88 99 80 73 89 105 112 116 130 131 131 132 133 134 135 134 135 137 134 134 134
39 40 40 41 43 44 45 45 48 51 51 55 59 54 55 67 77 84 84 86 85 87 93 84 88 92 110 111 112 84 108 115 116 132 133 135 136 134 134 133 133 133 133 133
34 36 38 39 41 43 44 45 47 49 50 52 58 55 59 61 64 70 81 89 91 91 89 92 95 92 92 106 113 91 78 92 107 113 118 129 135 135 135 135 135 133 132 132
30 33 36 38 40 42 44 46 47 49 50 50 51 52 54 58 63 68 72 76 83 93 96 96 95 96 98 97 91 105 111 98 82 91 107 103 110 122 132 131 131 132 131 131
28 30 33 37 40 41 43 44 45 48 50 51 50 52 52 53 56 61 65 71 79 83 89 95 100 100 99 99 100 101 97 100 105 107 83 87 100 103 105 115 123 128 128 128
24 30 34 37 38 40 42 42 45 47 48 49 50 50 52 53 56 60 64 66 73 77 84 90 93 98 102 102 101 101 102 103 100 101 106 104 84 85 90 102 106 99 99 111
25 27 30 35 37 39 40 41 42 45 47 49 50 50 51 51 53 56 43 54 44 56 78 87 92 94 97 102 104 103 102 101 103 100 100 102 104 107 99 84 83 85 91 98
26 27 29 31 35 38 39 41 43 45 47 48 50 50 50 50 49 51 39 34 44 45 53 66 92 94 96 97 100 104 105 104 103 102 102 102 99 100 102 103 103 103 90 80
28 29 30 31 33 36 38 40 43 45 48 49 50 50 49 49 47 43 47 32 28 49 48 50 64 94 96 97 98 98 101 106 106 105 103 102 101 101 100 100 99 100 99 99
26 27 30 31 33 35 38 40 43 43 46 47 49 50 50 48 47 42 51 38 29 24 29 46 54 56 96 97 98 98 99 100 103 107 107 103 102 101 100 99 99 98 98 97
25 27 29 30 32 35 38 41 42 44 46 48 48 49 50 50 46 45 40 41 37 38 25 27 30 37 54 64 97 99 100 100 100 101 103 105 106 104 102 100 99 98 97 96
24 27 29 32 33 36 37 39 40 42 43 45 48 49 50 50 48 47 46 43 40 40 43 36 30 36 37 38 47 72 98 101 102 101 100 100 100 105 106 104 102 100 98 97
25 28 30 31 32 36 37 34 36 42 44 45 47 50 52 53 51 51 50 49 47 43 41 43 47 44 40 46 41 40 41 60 98 99 101 100 101 104 100 101 105 103 101 100
25 29 33 32 29 29 33 38 34 37 42 45 47 49 52 55 56 56 54 53 52 49 47 46 47 51 53 47 48 51 42 42 45 49 100 101 100 102 101 101 99 96 102 102
28 30 32 33 29 27 26 27 30 33 38 43 47 48 49 53 55 56 55 55 56 54 53 53 51 52 53 57 50 50 56 50 43 44 48 50 98 100 101 102 101 99 97 95
30 31 32 28 27 25 23 23 24 26 28 30 35 38 42 46 49 50 50 52 54 56 57 57 57 57 45 45 48 48 53 47 58 52 46 49 79 98 86 101 102 102 100 99
Wind_Direction
253 247 246 244 243 241 240 242 238 237 234 235 225 225 227 228 233 230 231 232 231 232 229 232 236 239 235 240 243 240 239 237 251 238 240 258 246 243 237 248 264 254 246 241
254 251 249 244 244 243 240 238 238 236 237 237 239 226 227 229 235 231 226 228 232 232 230 233 236 238 236 238 241 246 238 241 250 250 253 242 241 253 253 239 237 242 244 246
254 251 248 245 242 242 242 239 240 237 236 235 237 239 240 228 235 233 228 228 227 236 233 231 232 238 240 242 245 246 246 247 248 239 245 245 243 240 242 247 241 241 242 258
254 250 250 248 245 247 244 241 240 239 235 237 237 237 239 229 235 233 232 228 229 235 236 231 233 234 238 239 240 241 243 238 240 249 242 251 247 244 242 245 259 246 241 258
259 255 247 252 250 247 240 244 239 239 238 238 237 239 237 238 238 235 231 231 227 228 230 235 235 235 237 234 236 241 241 244 246 248 251 244 253 239 255 257 246 258 250 251
258 256 253 253 252 249 246 244 243 239 239 237 237 240 237 240 237 236 234 233 231 227 228 230 233 238 239 239 238 238 238 238 244 247 249 250 252 254 255 248 251 258 247 259
258 256 255 251 250 248 246 244 241 242 238 236 238 239 238 236 236 236 234 234 233 231 229 230 231 233 234 235 237 241 241 240 240 242 244 248 250 252 254 255 256 255 254 260
259 257 254 253 250 248 245 243 242 241 238 238 235 238 239 237 237 236 236 232 234 233 231 232 232 231 234 234 237 238 241 241 240 240 243 245 247 245 252 254 253 256 257 257
261 258 257 255 253 250 248 246 246 243 238 237 236 236 235 236 237 237 237 236 236 236 234 233 233 234 235 235 237 237 237 238 242 241 244 246 247 248 247 248 251 249 252 257
257 256 257 256 254 251 249 245 244 244 246 243 239 236 234 235 234 236 237 235 237 235 236 235 234 234 235 235 235 238 239 239 240 241 242 243 244 248 249 249 250 251 251 253
257 256 254 253 253 249 246 244 243 243 242 243 244 238 238 234 235 235 237 237 236 236 240 237 237 238 236 237 238 237 238 241 242 241 243 243 244 245 246 246 251 249 249 250
257 254 252 250 249 249 247 245 245 244 242 243 243 240 239 238 237 237 236 236 239 238 236 239 240 240 237 238 239 238 240 239 240 242 244 243 243 244 245 246 247 248 248 249
254 251 250 248 247 246 246 246 246 246 245 243 244 242 241 240 239 239 239 238 238 238 239 239 239 240 241 239 238 239 238 239 241 241 241 242 245 246 246 247 248 248 249 250
251 246 248 248 247 247 247 246 246 246 246 246 247 247 246 245 244 242 241 240 240 240 239 239 240 241 240 240 241 241 241 240 240 240 243 242 243 244 246 248 248 249 249 250
253 247 243 245 248 249 249 248 247 248 249 249 249 249 250 251 252 252 251 247 242 241 240 240 241 241 241 242 241 241 242 243 243 244 241 241 244 247 247 249 249 250 250 252
253 251 250 250 248 248 248 247 248 248 249 251 251 252 252 253 254 256 256 252 250 244 241 240 240 240 242 242 241 243 242 242 243 244 244 245 242 243 244 247 248 247 248 250
262 254 250 251 250 250 249 248 246 247 247 249 250 253 255 255 253 255 269 257 258 246 242 239 238 239 239 240 243 242 242 243 243 244 244 245 245 245 247 245 246 247 249 251
267 262 256 253 252 251 250 250 250 250 252 252 254 255 257 259 262 254 273 273 260 258 248 240 236 236 237 238 239 240 242 243 243 244 244 244 245 246 247 247 247 249 248 247
270 270 267 261 257 256 255 252 250 250 252 254 256 259 260 262 267 264 263 280 279 256 258 252 242 236 235 236 237 238 239 241 243 244 244 244 245 245 245 246 247 248 249 251
275 275 274 272 268 265 261 260 258 256 254 254 256 260 262 263 264 263 259 283 279 291 269 260 254 250 237 236 236 236 238 239 240 242 244 244 244 245 246 246 246 246 247 248
271 272 272 272 270 267 265 265 263 261 258 258 258 259 261 261 262 264 263 266 276 266 284 278 267 263 252 246 239 238 236 237 238 240 241 241 244 245 245 246 246 247 248 249
273 273 275 275 275 274 272 269 266 264 263 259 259 260 261 262 263 264 264 261 261 264 260 269 275 265 260 261 256 245 239 240 239 238 239 240 241 242 244 245 246 247 247 248
274 278 275 277 275 273 273 269 262 262 262 263 262 261 263 265 265 265 265 265 261 260 260 260 259 263 268 257 256 257 255 251 241 242 241 240 241 243 242 243 244 246 247 248
282 285 287 289 291 278 269 271 264 259 259 261 263 262 261 264 265 266 267 267 266 263 260 260 260 259 259 261 255 251 254 256 255 254 243 241 243 241 241 242 243 244 244 245
292 295 298 299 294 288 277 265 263 258 259 260 263 264 263 264 267 269 271 272 271 269 267 261 259 261 260 257 256 250 249 247 252 258 256 255 241 243 243 242 242 242 242 244
299 303 303 300 295 293 289 282 274 267 265 265 266 266 265 267 268 268 268 268 268 268 268 266 264 261 267 264 258 254 246 249 247 248 256 258 246 241 244 240 241 242 242 242